Retour au catalogue

STARLINK-32826

ActifCommunicationsVLEO
NORAD 62970·PAYLOAD·🇺🇸 United States

Lancé Feb 11, 2025 depuis Vandenberg Space Force Base

Loading…

Prochains Passages (prochaines 24 heures)

TLE

FraisSource: CelesTrak SupGP

Époque: Sep 14, 2026, 21:41 UTC

1 62970C 25029Y   26257.90395833  .00029465  00000+0  87070-3 0  2571
2 62970  53.1586  71.5909 0001014  78.9765 331.8656 15.34370672    14

Suivez STARLINK-32826 en temps réel avec AllMySat

Download on the App Store